[Iaude] MPEC X52: 2023 XQ [a=0.85,e=0.34,i=9.8,H=25.2]

mpec at marsden.cfa.harvard.edu mpec at marsden.cfa.harvard.edu
Tue Dec 5 02:08:12 EST 2023


M.P.E.C. 2023-X52                              Issued 2023 December 5, 07:06 UT

     The Minor Planet Electronic Circulars contain information on unusual
         minor planets, routine data on comets and natural satellites,
         and occasional editorial announcements.  They are published
    on behalf of Division F of the International Astronomical Union by the
          Minor Planet Center, Smithsonian Astrophysical Observatory,
                          Cambridge, MA 02138, U.S.A.
			  
             Prepared using the Tamkin Foundation Computer Network

                              MPC at CFA.HARVARD.EDU
            URL https://www.minorplanetcenter.net/    ISSN 1523-6714

                                    2023 XQ                                     


Observations:
     K23X00Q* C2023 12 03.22571101 50 51.184+07 24 27.49         19.84wXEX052F52
     K23X00Q  C2023 12 03.23733201 50 49.892+07 27 34.50         19.72wXEX052F52
     K23X00Q  C2023 12 03.24899501 50 48.564+07 30 41.63         19.80wXEX052F52
     K23X00Q mC2023 12 04.06078101 50 29.170+10 43 26.22         20.36GVEX052I52
     K23X00Q mC2023 12 04.06103201 50 29.188+10 43 29.64         19.86GVEX052I52
     K23X00Q mC2023 12 04.06194801 50 29.072+10 43 41.38         20.01GVEX052I52
     K23X00Q mC2023 12 04.06219801 50 29.044+10 43 45.34         20.27GVEX052I52
     K23X00Q KC2023 12 04.06956301 50 24.21 +10 45 04.4          20.0 GVEX052H21
     K23X00Q KC2023 12 04.07227101 50 23.96 +10 45 38.9          20.2 GVEX052H21
     K23X00Q KC2023 12 04.07515901 50 23.71 +10 46 16.2          20.1 GVEX052H21
     K23X00Q KC2023 12 04.07739601 50 23.50 +10 46 45.1          20.2 GVEX052H21
     K23X00Q KC2023 12 04.10660401 50 24.43 +10 53 08.6          19.3 GXEX052858
     K23X00Q KC2023 12 04.11348701 50 23.84 +10 54 36.6          19.2 GXEX052858
     K23X00Q KC2023 12 04.12056101 50 23.23 +10 56 06.1          19.4 GXEX052858
     K23X00Q  C2023 12 04.21944001 50 24.403+11 17 22.81         19.85wXEX052F52
     K23X00Q  C2023 12 04.23359301 50 23.131+11 20 18.23         20.07wXEX052F52
     K23X00Q  C2023 12 04.24778101 50 21.809+11 23 13.21         20.12wXEX052F52
     K23X00Q  C2023 12 04.26210501 50 20.443+11 26 09.10         20.00wXEX052F52
     K23X00Q  C2023 12 05.26759701 49 55.308+14 26 21.13         19.8 GVEX052H01
     K23X00Q  C2023 12 05.27219401 49 55.026+14 27 04.47         20.0 GVEX052H01
     K23X00Q  C2023 12 05.28453001 49 54.294+14 29 00.44         20.1 GVEX052H01
     K23X00Q  C2023 12 05.28874001 49 54.063+14 29 39.93         19.9 GVEX052H01

Observer details:
858 Tebbutt Observatory, Edgewood.  Observer F. B. Zoltowski.  0.51-m f/8.1
    Schmidt-Cassegrain + CCD.
F52 Pan-STARRS 2, Haleakala.  Observers J. Herman, T. Lowe, P. Minguez, A.
    Schultz, I. Smith.  Measurers K. Chambers, T. de Boer, J. Fairlamb, H.
    Gao, M. Huber, C.-C. Lin, E. Magnier, Y. Ramanjooloo, R. Wainscoat, R.
    Weryk.  1.8-m Ritchey-Chretien + CCD.
H01 Magdalena Ridge Observatory, Socorro.  Observers W. H. Ryan, E. V. Ryan.
    Measurer W. H. Ryan.  2.4-m f/8.9 Ritchey-Chretien + CCD.
H21 Astronomical Research Observatory, Westfield.  Observer R. Holmes.
    Measurers T. Linder, R. Holmes, L. Horn.  0.76-m f/3.0 astrograph + CCD.
I52 Steward Observatory, Mt. Lemmon Station.  Observer G. J. Leonard.
    Measurers E. C. Beshore, D. Fay, J. B. Fazekas, D. C. Fuls, A. R. Gibbs,
    A. D. Grauer, H. Groeller, J. K. Hogan, R. A. Kowalski, S. M. Larson, G.
    J. Leonard, D. Rankin, R. L. Seaman, F. C. Shelly, K. W. Wierzchos.  1.0-m
    prime focus + CCD.

Orbital elements:
2023 XQ                                                  Earth MOID = 0.0156 AU
Epoch 2023 Sept. 13.0 TT = JDT 2460200.5                MPC                     
M   6.96585              (2000.0)            P               Q                  
n   1.25765831     Peri.  219.32322     +0.31980197     +0.93398811             
a   0.8500170      Node    69.85058     -0.82089380     +0.35711217             
e   0.3382409      Incl.    9.77270     -0.47313852     +0.01170920             
P   0.78           H   25.26          G   0.15           U   6                  
Residuals in seconds of arc
231203 F52  0.1+  0.1+    231204 H21  0.1-  0.1-    231204 F52  0.0   0.2-
231203 F52  0.2+  0.1-    231204 H21  0.1-  0.1+    231204 F52  0.0   0.1-
231203 F52  0.2+  0.0     231204 H21  0.3-  0.3+    231205 H01  0.0   0.0
231204 I52  0.1+  0.3-    231204 858  0.3-  0.2-    231205 H01  0.0   0.0
231204 I52  0.6+  0.2-    231204 858  0.1-  0.2+    231205 H01  0.0   0.0
231204 I52  0.0   0.3-    231204 858  0.1+  0.2-    231205 H01  0.1+  0.0
231204 I52  0.2-  0.4+    231204 F52  0.1-  0.0
231204 H21  0.2+  0.1+    231204 F52  0.0   0.1-

Ephemeris:
2023 XQ                  a,e,i = 0.85, 0.34, 10                  q = 0.5625
Date    TT    R. A. (2000) Decl.     Delta      r    Elong.  Phase     V
2023 11 05    13 50 48.9 -41 36 50   0.1469  0.8649    28.1   147.3    28.7
...
2023 11 20    13 38 38.4 -56 50 36   0.05185 0.9513    43.5   134.4    24.9
...
2023 11 28    02 02 05.0 -49 17 33   0.01879 0.9913   103.8    75.2    19.2
...
2023 12 04    01 50 22.5 +10 31 35   0.04320 1.0183   138.1    40.2    20.1
2023 12 05    01 50 04.4 +13 43 20   0.04893 1.0225   138.1    40.0    20.3
2023 12 06    01 49 54.8 +16 14 54   0.05478 1.0267   137.8    40.1    20.6
...
2023 12 12    01 50 54.6 +24 28 09   0.09143 1.0501   133.8    42.6    21.8
...
2023 12 20    01 55 38.9 +28 49 35   0.1423  1.0770   127.8    46.2    22.9
...
2024 01 04    02 11 13.0 +32 18 12   0.2401  1.1143   117.4    51.6    24.3

A. U. Tomatic                (C) Copyright 2023 MPC           M.P.E.C. 2023-X52





More information about the Iaude mailing list